Find Starlink 30702

NORAD ID: 57955 Int'l Des: 2023-148 Owner: SPXS Country: US Constellation: starlink operational
LEOCIRCULAR

Current View

Loading 3D Globe...

About Starlink 30702

Starlink 30702 (NORAD 57955) is a starlink constellation satellite (v2 mini) launched Sep 25, 2023 by SPXS of US. It operates in LEO, CIRCULAR orbit with a mass of 730.00 kg.

Upcoming Passes

Passes for default location (London). Set your location on the main map for personalized predictions.

Altitude History

Loading altitude history...

Two-Line Element Set

1 57955U 23148W 26251.36542713 .00000427 00000-0 23776-4 0 9998
2 57955 53.1598 242.6590 0001383 99.3018 260.8141 15.34389870166572
Epoch: Sep 8, 2026 • Age: 28 hours

Current Status

Altitude 463.1 km
Apogee / Perigee N/A
Velocity 7.64 km/s
Sub-Earth Point 6.57°N, 59.33°E
Launch Date Sep 25, 2023
Age 2.9 years
Type internet

Technical Details

Classification Payload
Mass 730.00 kg
Dry Mass 700.00 kg
Total Mass 730.00 kg
Length 0.30 m
Diameter 4.10 m
Span 29.00 m
Shape Box + pan
Manufacturer SPXS
Bus Type Starlink V2M
Phase Status In Orbit
Owner/State SPXS/US

Most Searched